Location: Bottens
(46.6171°N, 6.6605°E)
Time: 13:08:33
(UTC+00:00)

Cosmos 1242 Rocket - Pass Details

Date: 20 June 2021
Orbit: 446 x 483 km, 81.2° (Epoch: 31 July)

Event Time Altitude Azimuth Distance (km) Brightness Sun altitude
Rises 01:53:46 0° 334° (NNW) 2,526 6.7 -13.2°
Reaches altitude 10° 01:56:14 10° 318° (NW) 1,649 5.4 -13.0°
Maximum altitude 01:58:56 20° 269° (W) 1,155 4.1 -12.8°
Enters shadow 02:00:04 18° 244° (WSW) 1,256 4.1 -12.6°
